Year,Month,Day,Hour,Minute,Value (Times are PST for temperature in C)
2013,10,18,00,00,6.40
2013,10,18,00,01,6.40
2013,10,18,00,02,6.40
2013,10,18,00,03,6.40
2013,10,18,00,04,6.40
2013,10,18,00,05,6.30
2013,10,18,00,06,6.30
2013,10,18,00,07,6.30
2013,10,18,00,08,6.30
2013,10,18,00,09,6.30
2013,10,18,00,10,6.30
2013,10,18,00,11,6.30
2013,10,18,00,12,6.20
2013,10,18,00,13,6.20
2013,10,18,00,14,6.20
2013,10,18,00,15,6.20
2013,10,18,00,16,6.20
2013,10,18,00,17,6.20
2013,10,18,00,18,6.20
2013,10,18,00,19,6.30
2013,10,18,00,20,6.30
2013,10,18,00,21,6.30
2013,10,18,00,22,6.30
2013,10,18,00,23,6.30
2013,10,18,00,24,6.30
2013,10,18,00,25,6.30
2013,10,18,00,26,6.30
2013,10,18,00,27,6.30
2013,10,18,00,28,6.30
2013,10,18,00,29,6.30
2013,10,18,00,30,6.40
2013,10,18,00,31,6.40
2013,10,18,00,32,6.30
2013,10,18,00,33,6.30
2013,10,18,00,34,6.30
2013,10,18,00,35,6.30
2013,10,18,00,36,6.30
2013,10,18,00,37,6.30
2013,10,18,00,38,6.20
2013,10,18,00,39,6.20
2013,10,18,00,40,6.20
2013,10,18,00,41,6.20
2013,10,18,00,42,6.10
2013,10,18,00,43,6.10
2013,10,18,00,44,6.10
2013,10,18,00,45,6.10
2013,10,18,00,46,6.10
2013,10,18,00,47,6.10
2013,10,18,00,48,6.10
2013,10,18,00,49,6.10
2013,10,18,00,50,6.10
2013,10,18,00,51,6.10
2013,10,18,00,52,6.10
2013,10,18,00,53,6.10
2013,10,18,00,54,6.10
2013,10,18,00,55,6.10
2013,10,18,00,56,6.10
2013,10,18,00,57,6.20
2013,10,18,00,58,6.10
2013,10,18,00,59,6.10
2013,10,18,01,00,6.20
2013,10,18,01,01,6.20
2013,10,18,01,02,6.20
2013,10,18,01,03,6.20
2013,10,18,01,04,6.20
2013,10,18,01,05,6.20
2013,10,18,01,06,6.20
2013,10,18,01,07,6.20
2013,10,18,01,08,6.20
2013,10,18,01,09,6.20
2013,10,18,01,10,6.20
2013,10,18,01,11,6.20
2013,10,18,01,12,6.20
2013,10,18,01,13,6.20
2013,10,18,01,14,6.20
2013,10,18,01,15,6.20
2013,10,18,01,16,6.20
2013,10,18,01,17,6.20
2013,10,18,01,18,6.10
2013,10,18,01,19,6.10
2013,10,18,01,20,6.10
2013,10,18,01,21,6.10
2013,10,18,01,22,6.10
2013,10,18,01,23,6.10
2013,10,18,01,24,6.10
2013,10,18,01,25,6.10
2013,10,18,01,26,6.10
2013,10,18,01,27,6.10
2013,10,18,01,28,6.20
2013,10,18,01,29,6.20
2013,10,18,01,30,6.20
2013,10,18,01,31,6.20
2013,10,18,01,32,6.20
2013,10,18,01,33,6.20
2013,10,18,01,34,6.20
2013,10,18,01,35,6.30
2013,10,18,01,36,6.30
2013,10,18,01,37,6.30
2013,10,18,01,38,6.30
2013,10,18,01,39,6.30
2013,10,18,01,40,6.30
2013,10,18,01,41,6.30
2013,10,18,01,42,6.40
2013,10,18,01,43,6.40
2013,10,18,01,44,6.40
2013,10,18,01,45,6.40
2013,10,18,01,46,6.40
2013,10,18,01,47,6.40
2013,10,18,01,48,6.40
2013,10,18,01,49,6.40
2013,10,18,01,50,6.40
2013,10,18,01,51,6.40
2013,10,18,01,52,6.40
2013,10,18,01,53,6.40
2013,10,18,01,54,6.40
2013,10,18,01,55,6.40
2013,10,18,01,56,6.40
2013,10,18,01,57,6.40
2013,10,18,01,58,6.40
2013,10,18,01,59,6.40
2013,10,18,02,00,6.30
2013,10,18,02,01,6.30
2013,10,18,02,02,6.30
2013,10,18,02,03,6.30
2013,10,18,02,04,6.30
2013,10,18,02,05,6.30
2013,10,18,02,06,6.30
2013,10,18,02,07,6.30
2013,10,18,02,08,6.20
2013,10,18,02,09,6.20
2013,10,18,02,10,6.20
2013,10,18,02,11,6.10
2013,10,18,02,12,6.10
2013,10,18,02,13,6.00
2013,10,18,02,14,6.00
2013,10,18,02,15,5.90
2013,10,18,02,16,5.90
2013,10,18,02,17,5.80
2013,10,18,02,18,5.80
2013,10,18,02,19,5.80
2013,10,18,02,20,5.70
2013,10,18,02,21,5.70
2013,10,18,02,22,5.70
2013,10,18,02,23,5.60
2013,10,18,02,24,5.60
2013,10,18,02,25,5.50
2013,10,18,02,26,5.50
2013,10,18,02,27,5.40
2013,10,18,02,28,5.40
2013,10,18,02,29,5.30
2013,10,18,02,30,5.30
2013,10,18,02,31,5.30
2013,10,18,02,32,5.30
2013,10,18,02,33,5.20
2013,10,18,02,34,5.20
2013,10,18,02,35,5.20
2013,10,18,02,36,5.20
2013,10,18,02,37,5.20
2013,10,18,02,38,5.20
2013,10,18,02,39,5.20
2013,10,18,02,40,5.20
2013,10,18,02,41,5.20
2013,10,18,02,42,5.10
2013,10,18,02,43,5.10
2013,10,18,02,44,5.10
2013,10,18,02,45,5.10
2013,10,18,02,46,5.10
2013,10,18,02,47,5.10
2013,10,18,02,48,5.10
2013,10,18,02,49,5.10
2013,10,18,02,50,5.10
2013,10,18,02,51,5.10
2013,10,18,02,52,5.10
2013,10,18,02,53,5.10
2013,10,18,02,54,5.10
2013,10,18,02,55,5.10
2013,10,18,02,56,5.10
2013,10,18,02,57,5.00
2013,10,18,02,58,5.00
2013,10,18,02,59,5.00
2013,10,18,03,00,4.90
2013,10,18,03,01,4.90
2013,10,18,03,02,4.90
2013,10,18,03,03,4.90
2013,10,18,03,04,4.80
2013,10,18,03,05,4.80
2013,10,18,03,06,4.80
2013,10,18,03,07,4.80
2013,10,18,03,08,4.80
2013,10,18,03,09,4.90
2013,10,18,03,10,4.90
2013,10,18,03,11,5.00
2013,10,18,03,12,5.00
2013,10,18,03,13,5.00
2013,10,18,03,14,5.00
2013,10,18,03,15,5.00
2013,10,18,03,16,5.00
2013,10,18,03,17,5.00
2013,10,18,03,18,5.00
2013,10,18,03,19,5.00
2013,10,18,03,20,5.00
2013,10,18,03,21,5.10
2013,10,18,03,22,5.00
2013,10,18,03,23,5.00
2013,10,18,03,24,5.00
2013,10,18,03,25,5.00
2013,10,18,03,26,5.00
2013,10,18,03,27,5.00
2013,10,18,03,28,5.00
2013,10,18,03,29,4.90
2013,10,18,03,30,4.90
2013,10,18,03,31,4.90
2013,10,18,03,32,4.90
2013,10,18,03,33,4.90
2013,10,18,03,34,4.90
2013,10,18,03,35,4.90
2013,10,18,03,36,4.90
2013,10,18,03,37,4.80
2013,10,18,03,38,4.80
2013,10,18,03,39,4.80
2013,10,18,03,40,4.80
2013,10,18,03,41,4.80
2013,10,18,03,42,4.80
2013,10,18,03,43,4.80
2013,10,18,03,44,4.80
2013,10,18,03,45,4.80
2013,10,18,03,46,4.80
2013,10,18,03,47,4.80
2013,10,18,03,48,4.80
2013,10,18,03,49,4.80
2013,10,18,03,50,4.80
2013,10,18,03,51,4.80
2013,10,18,03,52,4.80
2013,10,18,03,53,4.80
2013,10,18,03,54,4.80
2013,10,18,03,55,4.80
2013,10,18,03,56,4.70
2013,10,18,03,57,4.70
2013,10,18,03,58,4.70
2013,10,18,03,59,4.70
2013,10,18,04,00,4.70
2013,10,18,04,01,4.70
2013,10,18,04,02,4.70
2013,10,18,04,03,4.60
2013,10,18,04,04,4.60
2013,10,18,04,05,4.60
2013,10,18,04,06,4.60
2013,10,18,04,07,4.60
2013,10,18,04,08,4.60
2013,10,18,04,09,4.60
2013,10,18,04,10,4.60
2013,10,18,04,11,4.60
2013,10,18,04,12,4.60
2013,10,18,04,13,4.60
2013,10,18,04,14,4.60
2013,10,18,04,15,4.60
2013,10,18,04,16,4.60
2013,10,18,04,17,4.60
2013,10,18,04,18,4.60
2013,10,18,04,19,4.60
2013,10,18,04,20,4.70
2013,10,18,04,21,4.70
2013,10,18,04,22,4.80
2013,10,18,04,23,4.80
2013,10,18,04,24,4.80
2013,10,18,04,25,4.80
2013,10,18,04,26,4.80
2013,10,18,04,27,4.80
2013,10,18,04,28,4.80
2013,10,18,04,29,4.80
2013,10,18,04,30,4.80
2013,10,18,04,31,4.80
2013,10,18,04,32,4.80
2013,10,18,04,33,4.80
2013,10,18,04,34,4.80
2013,10,18,04,35,4.70
2013,10,18,04,36,4.70
2013,10,18,04,37,4.70
2013,10,18,04,38,4.70
2013,10,18,04,39,4.70
2013,10,18,04,40,4.70
2013,10,18,04,41,4.60
2013,10,18,04,42,4.60
2013,10,18,04,43,4.60
2013,10,18,04,44,4.60
2013,10,18,04,45,4.60
2013,10,18,04,46,4.60
2013,10,18,04,47,4.60
2013,10,18,04,48,4.50
2013,10,18,04,49,4.50
2013,10,18,04,50,4.50
2013,10,18,04,51,4.40
2013,10,18,04,52,4.40
2013,10,18,04,53,4.40
2013,10,18,04,54,4.40
2013,10,18,04,55,4.40
2013,10,18,04,56,4.40
2013,10,18,04,57,4.30
2013,10,18,04,58,4.30
2013,10,18,04,59,4.30
2013,10,18,05,00,4.30
2013,10,18,05,01,4.30
2013,10,18,05,02,4.30
2013,10,18,05,03,4.30
2013,10,18,05,04,4.30
2013,10,18,05,05,4.30
2013,10,18,05,06,4.30
2013,10,18,05,07,4.30
2013,10,18,05,08,4.30
2013,10,18,05,09,4.40
2013,10,18,05,10,4.50
2013,10,18,05,11,4.50
2013,10,18,05,12,4.60
2013,10,18,05,13,4.60
2013,10,18,05,14,4.60
2013,10,18,05,15,4.60
2013,10,18,05,16,4.60
2013,10,18,05,17,4.60
2013,10,18,05,18,4.60
2013,10,18,05,19,4.60
2013,10,18,05,20,4.50
2013,10,18,05,21,4.50
2013,10,18,05,22,4.50
2013,10,18,05,23,4.40
2013,10,18,05,24,4.40
2013,10,18,05,25,4.40
2013,10,18,05,26,4.30
2013,10,18,05,27,4.30
2013,10,18,05,28,4.30
2013,10,18,05,29,4.20
2013,10,18,05,30,4.20
2013,10,18,05,31,4.20
2013,10,18,05,32,4.20
2013,10,18,05,33,4.10
2013,10,18,05,34,4.10
2013,10,18,05,35,4.10
2013,10,18,05,36,4.10
2013,10,18,05,37,4.10
2013,10,18,05,38,4.10
2013,10,18,05,39,4.10
2013,10,18,05,40,4.10
2013,10,18,05,41,4.00
2013,10,18,05,42,4.00
2013,10,18,05,43,4.00
2013,10,18,05,44,4.00
2013,10,18,05,45,4.00
2013,10,18,05,46,4.00
2013,10,18,05,47,4.00
2013,10,18,05,48,4.00
2013,10,18,05,49,4.10
2013,10,18,05,50,4.10
2013,10,18,05,51,4.10
2013,10,18,05,52,4.10
2013,10,18,05,53,4.10
2013,10,18,05,54,4.10
2013,10,18,05,55,4.10
2013,10,18,05,56,4.10
2013,10,18,05,57,4.10
2013,10,18,05,58,4.10
2013,10,18,05,59,4.10
2013,10,18,06,00,4.10
2013,10,18,06,01,4.10
2013,10,18,06,02,4.10
2013,10,18,06,03,4.00
2013,10,18,06,04,4.00
2013,10,18,06,05,4.00
2013,10,18,06,06,4.10
2013,10,18,06,07,4.10
2013,10,18,06,08,4.10
2013,10,18,06,09,4.10
2013,10,18,06,10,4.10
2013,10,18,06,11,4.10
2013,10,18,06,12,4.10
2013,10,18,06,13,4.10
2013,10,18,06,14,4.10
2013,10,18,06,15,4.10
2013,10,18,06,16,4.10
2013,10,18,06,17,4.10
2013,10,18,06,18,4.10
2013,10,18,06,19,4.20
2013,10,18,06,20,4.20
2013,10,18,06,21,4.20
2013,10,18,06,22,4.20
2013,10,18,06,23,4.20
2013,10,18,06,24,4.10
2013,10,18,06,25,4.10
2013,10,18,06,26,4.10
2013,10,18,06,27,4.10
2013,10,18,06,28,4.20
2013,10,18,06,29,4.20
2013,10,18,06,30,4.20
2013,10,18,06,31,4.20
2013,10,18,06,32,4.20
2013,10,18,06,33,4.20
2013,10,18,06,34,4.30
2013,10,18,06,35,4.30
2013,10,18,06,36,4.30
2013,10,18,06,37,4.30
2013,10,18,06,38,4.30
2013,10,18,06,39,4.30
2013,10,18,06,40,4.30
2013,10,18,06,41,4.30
2013,10,18,06,42,4.20
2013,10,18,06,43,4.20
2013,10,18,06,44,4.20
2013,10,18,06,45,4.20
2013,10,18,06,46,4.20
2013,10,18,06,47,4.20
2013,10,18,06,48,4.20
2013,10,18,06,49,4.20
2013,10,18,06,50,4.10
2013,10,18,06,51,4.10
2013,10,18,06,52,4.10
2013,10,18,06,53,4.10
2013,10,18,06,54,4.10
2013,10,18,06,55,4.10
2013,10,18,06,56,4.10
2013,10,18,06,57,4.10
2013,10,18,06,58,4.10
2013,10,18,06,59,4.10
2013,10,18,07,00,4.00
2013,10,18,07,01,4.00
2013,10,18,07,02,4.00
2013,10,18,07,03,4.00
2013,10,18,07,04,4.00
2013,10,18,07,05,3.90
2013,10,18,07,06,3.90
2013,10,18,07,07,3.90
2013,10,18,07,08,3.90
2013,10,18,07,09,3.90
2013,10,18,07,10,3.90
2013,10,18,07,11,3.90
2013,10,18,07,12,3.90
2013,10,18,07,13,3.80
2013,10,18,07,14,3.80
2013,10,18,07,15,3.80
2013,10,18,07,16,3.80
2013,10,18,07,17,3.80
2013,10,18,07,18,3.80
2013,10,18,07,19,3.80
2013,10,18,07,20,3.80
2013,10,18,07,21,3.70
2013,10,18,07,22,3.70
2013,10,18,07,23,3.70
2013,10,18,07,24,3.70
2013,10,18,07,25,3.70
2013,10,18,07,26,3.70
2013,10,18,07,27,3.70
2013,10,18,07,28,3.70
2013,10,18,07,29,3.70
2013,10,18,07,30,3.70
2013,10,18,07,31,3.70
2013,10,18,07,32,3.70
2013,10,18,07,33,3.70
2013,10,18,07,34,3.70
2013,10,18,07,35,3.70
2013,10,18,07,36,3.70
2013,10,18,07,37,3.70
2013,10,18,07,38,3.70
2013,10,18,07,39,3.70
2013,10,18,07,40,3.70
2013,10,18,07,41,3.60
2013,10,18,07,42,3.60
2013,10,18,07,43,3.60
2013,10,18,07,44,3.60
2013,10,18,07,45,3.60
2013,10,18,07,46,3.60
2013,10,18,07,47,3.60
2013,10,18,07,48,3.60
2013,10,18,07,49,3.60
2013,10,18,07,50,3.60
2013,10,18,07,51,3.50
2013,10,18,07,52,3.60
2013,10,18,07,53,3.50
2013,10,18,07,54,3.50
2013,10,18,07,55,3.50
2013,10,18,07,56,3.50
2013,10,18,07,57,3.50
2013,10,18,07,58,3.50
2013,10,18,07,59,3.50
2013,10,18,08,00,3.50
2013,10,18,08,01,3.50
2013,10,18,08,02,3.50
2013,10,18,08,03,3.50
2013,10,18,08,04,3.50
2013,10,18,08,05,3.50
2013,10,18,08,06,3.50
2013,10,18,08,07,3.50
2013,10,18,08,08,3.50
2013,10,18,08,09,3.50
2013,10,18,08,10,3.50
2013,10,18,08,11,3.50
2013,10,18,08,12,3.50
2013,10,18,08,13,3.50
2013,10,18,08,14,3.50
2013,10,18,08,15,3.50
2013,10,18,08,16,3.50
2013,10,18,08,17,3.50
2013,10,18,08,18,3.50
2013,10,18,08,19,3.60
2013,10,18,08,20,3.60
2013,10,18,08,21,3.60
2013,10,18,08,22,3.60
2013,10,18,08,23,3.60
2013,10,18,08,24,3.60
2013,10,18,08,25,3.70
2013,10,18,08,26,3.70
2013,10,18,08,27,3.70
2013,10,18,08,28,3.70
2013,10,18,08,29,3.70
2013,10,18,08,30,3.80
2013,10,18,08,31,3.80
2013,10,18,08,32,3.80
2013,10,18,08,33,3.80
2013,10,18,08,34,3.80
2013,10,18,08,35,3.90
2013,10,18,08,36,3.90
2013,10,18,08,37,3.90
2013,10,18,08,38,3.90
2013,10,18,08,39,4.00
2013,10,18,08,40,4.00
2013,10,18,08,41,4.10
2013,10,18,08,42,4.10
2013,10,18,08,43,4.20
2013,10,18,08,44,4.20
2013,10,18,08,45,4.30
2013,10,18,08,46,4.30
2013,10,18,08,47,4.40
2013,10,18,08,48,4.40
2013,10,18,08,49,4.50
2013,10,18,08,50,4.50
2013,10,18,08,51,4.60
2013,10,18,08,52,4.60
2013,10,18,08,53,4.60
2013,10,18,08,54,4.70
2013,10,18,08,55,4.70
2013,10,18,08,56,4.70
2013,10,18,08,57,4.70
2013,10,18,08,58,4.80
2013,10,18,08,59,4.80
2013,10,18,09,00,4.80
2013,10,18,09,01,4.90
2013,10,18,09,02,4.90
2013,10,18,09,03,4.90
2013,10,18,09,04,5.00
2013,10,18,09,05,5.00
2013,10,18,09,06,5.10
2013,10,18,09,07,5.10
2013,10,18,09,08,5.20
2013,10,18,09,09,5.20
2013,10,18,09,10,5.30
2013,10,18,09,11,5.30
2013,10,18,09,12,5.40
2013,10,18,09,13,5.40
2013,10,18,09,14,5.50
2013,10,18,09,15,5.60
2013,10,18,09,16,5.70
2013,10,18,09,17,5.80
2013,10,18,09,18,5.80
2013,10,18,09,19,5.90
2013,10,18,09,20,6.00
2013,10,18,09,21,6.10
2013,10,18,09,22,6.10
2013,10,18,09,23,6.20
2013,10,18,09,24,6.20
2013,10,18,09,25,6.30
2013,10,18,09,26,6.30
2013,10,18,09,27,6.30
2013,10,18,09,28,6.40
2013,10,18,09,29,6.40
2013,10,18,09,30,6.50
2013,10,18,09,31,6.50
2013,10,18,09,32,6.60
2013,10,18,09,33,6.70
2013,10,18,09,34,6.70
2013,10,18,09,35,6.80
2013,10,18,09,36,6.80
2013,10,18,09,37,6.90
2013,10,18,09,38,6.90
2013,10,18,09,39,7.00
2013,10,18,09,40,7.00
2013,10,18,09,41,7.10
2013,10,18,09,42,7.10
2013,10,18,09,43,7.20
2013,10,18,09,44,7.20
2013,10,18,09,45,7.20
2013,10,18,09,46,7.20
2013,10,18,09,47,7.30
2013,10,18,09,48,7.30
2013,10,18,09,49,7.30
2013,10,18,09,50,7.30
2013,10,18,09,51,7.30
2013,10,18,09,52,7.30
2013,10,18,09,53,7.30
2013,10,18,09,54,7.30
2013,10,18,09,55,7.30
2013,10,18,09,56,7.30
2013,10,18,09,57,7.40
2013,10,18,09,58,7.40
2013,10,18,09,59,7.40
2013,10,18,10,00,7.40
2013,10,18,10,01,7.40
2013,10,18,10,02,7.40
2013,10,18,10,03,7.40
2013,10,18,10,04,7.40
2013,10,18,10,05,7.40
2013,10,18,10,06,7.40
2013,10,18,10,07,7.40
2013,10,18,10,08,7.40
2013,10,18,10,09,7.40
2013,10,18,10,10,7.40
2013,10,18,10,11,7.40
2013,10,18,10,12,7.40
2013,10,18,10,13,7.40
2013,10,18,10,14,7.40
2013,10,18,10,15,7.50
2013,10,18,10,16,7.50
2013,10,18,10,17,7.60
2013,10,18,10,18,7.60
2013,10,18,10,19,7.60
2013,10,18,10,20,7.60
2013,10,18,10,21,7.70
2013,10,18,10,22,7.70
2013,10,18,10,23,7.70
2013,10,18,10,24,7.70
2013,10,18,10,25,7.70
2013,10,18,10,26,7.70
2013,10,18,10,27,7.70
2013,10,18,10,28,7.70
2013,10,18,10,29,7.70
2013,10,18,10,30,7.80
2013,10,18,10,31,7.80
2013,10,18,10,32,7.80
2013,10,18,10,33,7.80
2013,10,18,10,34,7.80
2013,10,18,10,35,7.90
2013,10,18,10,36,7.90
2013,10,18,10,37,7.90
2013,10,18,10,38,8.00
2013,10,18,10,39,8.00
2013,10,18,10,40,8.10
2013,10,18,10,41,8.10
2013,10,18,10,42,8.10
2013,10,18,10,43,8.10
2013,10,18,10,44,8.10
2013,10,18,10,45,8.10
2013,10,18,10,46,8.20
2013,10,18,10,47,8.20
2013,10,18,10,48,8.20
2013,10,18,10,49,8.20
2013,10,18,10,50,8.20
2013,10,18,10,51,8.20
2013,10,18,10,52,8.20
2013,10,18,10,53,8.20
2013,10,18,10,54,8.20
2013,10,18,10,55,8.20
2013,10,18,10,56,8.20
2013,10,18,10,57,8.20
2013,10,18,10,58,8.20
2013,10,18,10,59,8.30
2013,10,18,11,00,8.30
2013,10,18,11,01,8.30
2013,10,18,11,02,8.30
2013,10,18,11,03,8.30
2013,10,18,11,04,8.30
2013,10,18,11,05,8.30
2013,10,18,11,06,8.40
2013,10,18,11,07,8.40
2013,10,18,11,08,8.40
2013,10,18,11,09,8.40
2013,10,18,11,10,8.40
2013,10,18,11,11,8.40
2013,10,18,11,12,8.40
2013,10,18,11,13,8.40
2013,10,18,11,14,8.40
2013,10,18,11,15,8.40
2013,10,18,11,16,8.40
2013,10,18,11,17,8.40
2013,10,18,11,18,8.40
2013,10,18,11,19,8.40
2013,10,18,11,20,8.40
2013,10,18,11,21,8.50
2013,10,18,11,22,8.50
2013,10,18,11,23,8.50
2013,10,18,11,24,8.60
2013,10,18,11,25,8.60
2013,10,18,11,26,8.60
2013,10,18,11,27,8.60
2013,10,18,11,28,8.70
2013,10,18,11,29,8.70
2013,10,18,11,30,8.70
2013,10,18,11,31,8.70
2013,10,18,11,32,8.70
2013,10,18,11,33,8.70
2013,10,18,11,34,8.70
2013,10,18,11,35,8.80
2013,10,18,11,36,8.80
2013,10,18,11,37,8.80
2013,10,18,11,38,8.80
2013,10,18,11,39,8.80
2013,10,18,11,40,8.80
2013,10,18,11,41,8.80
2013,10,18,11,42,8.90
2013,10,18,11,43,8.90
2013,10,18,11,44,8.90
2013,10,18,11,45,8.90
2013,10,18,11,46,8.90
2013,10,18,11,47,9.00
2013,10,18,11,48,9.00
2013,10,18,11,49,9.00
2013,10,18,11,50,9.10
2013,10,18,11,51,9.10
2013,10,18,11,52,9.10
2013,10,18,11,53,9.10
2013,10,18,11,54,9.10
2013,10,18,11,55,9.20
2013,10,18,11,56,9.20
2013,10,18,11,57,9.20
2013,10,18,11,58,9.30
2013,10,18,11,59,9.30
2013,10,18,12,00,9.40
2013,10,18,12,01,9.40
2013,10,18,12,02,9.50
2013,10,18,12,03,9.50
2013,10,18,12,04,9.60
2013,10,18,12,05,9.70
2013,10,18,12,06,9.70
2013,10,18,12,07,9.70
2013,10,18,12,08,9.70
2013,10,18,12,09,9.70
2013,10,18,12,10,9.70
2013,10,18,12,11,9.70
2013,10,18,12,12,9.70
2013,10,18,12,13,9.70
2013,10,18,12,14,9.60
2013,10,18,12,15,9.60
2013,10,18,12,16,9.60
2013,10,18,12,17,9.60
2013,10,18,12,18,9.70
2013,10,18,12,19,9.70
2013,10,18,12,20,9.70
2013,10,18,12,21,9.70
2013,10,18,12,22,9.70
2013,10,18,12,23,9.70
2013,10,18,12,24,9.70
2013,10,18,12,25,9.70
2013,10,18,12,26,9.80
2013,10,18,12,27,9.80
2013,10,18,12,28,9.90
2013,10,18,12,29,9.90
2013,10,18,12,30,9.90
2013,10,18,12,31,9.90
2013,10,18,12,32,10.00
2013,10,18,12,33,10.00
2013,10,18,12,34,10.00
2013,10,18,12,35,10.10
2013,10,18,12,36,10.10
2013,10,18,12,37,10.20
2013,10,18,12,38,10.20
2013,10,18,12,39,10.20
2013,10,18,12,40,10.20
2013,10,18,12,41,10.30
2013,10,18,12,42,10.30
2013,10,18,12,43,10.30
2013,10,18,12,44,10.30
2013,10,18,12,45,10.30
2013,10,18,12,46,10.30
2013,10,18,12,47,10.30
2013,10,18,12,48,10.30
2013,10,18,12,49,10.40
2013,10,18,12,50,10.40
2013,10,18,12,51,10.40
2013,10,18,12,52,10.40
2013,10,18,12,53,10.50
2013,10,18,12,54,10.60
2013,10,18,12,55,10.60
2013,10,18,12,56,10.70
2013,10,18,12,57,10.70
2013,10,18,12,58,10.80
2013,10,18,12,59,10.80
2013,10,18,13,00,10.80
2013,10,18,13,01,10.90
2013,10,18,13,02,10.90
2013,10,18,13,03,10.90
2013,10,18,13,04,10.90
2013,10,18,13,05,11.00
2013,10,18,13,06,11.00
2013,10,18,13,07,11.10
2013,10,18,13,08,11.10
2013,10,18,13,09,11.10
2013,10,18,13,10,11.10
2013,10,18,13,11,11.20
2013,10,18,13,12,11.20
2013,10,18,13,13,11.20
2013,10,18,13,14,11.20
2013,10,18,13,15,11.20
2013,10,18,13,16,11.30
2013,10,18,13,17,11.30
2013,10,18,13,18,11.40
2013,10,18,13,19,11.40
2013,10,18,13,20,11.50
2013,10,18,13,21,11.60
2013,10,18,13,22,11.70
2013,10,18,13,23,11.70
2013,10,18,13,24,11.80
2013,10,18,13,25,11.90
2013,10,18,13,26,11.90
2013,10,18,13,27,12.00
2013,10,18,13,28,12.10
2013,10,18,13,29,12.10
2013,10,18,13,30,12.20
2013,10,18,13,31,12.20
2013,10,18,13,32,12.30
2013,10,18,13,33,12.30
2013,10,18,13,34,12.40
2013,10,18,13,35,12.40
2013,10,18,13,36,12.50
2013,10,18,13,37,12.50
2013,10,18,13,38,12.60
2013,10,18,13,39,12.60
2013,10,18,13,40,12.60
2013,10,18,13,41,12.60
2013,10,18,13,42,12.60
2013,10,18,13,43,12.60
2013,10,18,13,44,12.70
2013,10,18,13,45,12.70
2013,10,18,13,46,12.80
2013,10,18,13,47,12.80
2013,10,18,13,48,12.90
2013,10,18,13,49,12.90
2013,10,18,13,50,13.00
2013,10,18,13,51,13.00
2013,10,18,13,52,13.10
2013,10,18,13,53,13.10
2013,10,18,13,54,13.10
2013,10,18,13,55,13.20
2013,10,18,13,56,13.20
2013,10,18,13,57,13.20
2013,10,18,13,58,13.30
2013,10,18,13,59,13.30
2013,10,18,14,00,13.30
2013,10,18,14,01,13.30
2013,10,18,14,02,13.30
2013,10,18,14,03,13.30
2013,10,18,14,04,13.30
2013,10,18,14,05,13.40
2013,10,18,14,06,13.40
2013,10,18,14,07,13.50
2013,10,18,14,08,13.50
2013,10,18,14,09,13.50
2013,10,18,14,10,13.50
2013,10,18,14,11,13.50
2013,10,18,14,12,13.50
2013,10,18,14,13,13.50
2013,10,18,14,14,13.50
2013,10,18,14,15,13.50
2013,10,18,14,16,13.50
2013,10,18,14,17,13.50
2013,10,18,14,18,13.50
2013,10,18,14,19,13.50
2013,10,18,14,20,13.60
2013,10,18,14,21,13.60
2013,10,18,14,22,13.60
2013,10,18,14,23,13.60
2013,10,18,14,24,13.60
2013,10,18,14,25,13.70
2013,10,18,14,26,13.70
2013,10,18,14,27,13.70
2013,10,18,14,28,13.70
2013,10,18,14,29,13.70
2013,10,18,14,30,13.80
2013,10,18,14,31,13.80
2013,10,18,14,32,13.80
2013,10,18,14,33,13.80
2013,10,18,14,34,13.80
2013,10,18,14,35,13.80
2013,10,18,14,36,13.80
2013,10,18,14,37,13.80
2013,10,18,14,38,13.80
2013,10,18,14,39,13.80
2013,10,18,14,40,13.80
2013,10,18,14,41,13.80
2013,10,18,14,42,13.80
2013,10,18,14,43,13.80
2013,10,18,14,44,13.80
2013,10,18,14,45,13.80
2013,10,18,14,46,13.80
2013,10,18,14,47,13.90
2013,10,18,14,48,13.90
2013,10,18,14,49,13.90
2013,10,18,14,50,13.90
2013,10,18,14,51,13.80
2013,10,18,14,52,13.80
2013,10,18,14,53,13.80
2013,10,18,14,54,13.70
2013,10,18,14,55,13.70
2013,10,18,14,56,13.70
2013,10,18,14,57,13.70
2013,10,18,14,58,13.60
2013,10,18,14,59,13.60
2013,10,18,15,00,13.60
2013,10,18,15,01,13.60
2013,10,18,15,02,13.60
2013,10,18,15,03,13.60
2013,10,18,15,04,13.60
2013,10,18,15,05,13.50
2013,10,18,15,06,13.50
2013,10,18,15,07,13.50
2013,10,18,15,08,13.40
2013,10,18,15,09,13.40
2013,10,18,15,10,13.40
2013,10,18,15,11,13.30
2013,10,18,15,12,13.30
2013,10,18,15,13,13.30
2013,10,18,15,14,13.30
2013,10,18,15,15,13.20
2013,10,18,15,16,13.10
2013,10,18,15,17,13.10
2013,10,18,15,18,13.00
2013,10,18,15,19,12.90
2013,10,18,15,20,12.80
2013,10,18,15,21,12.70
2013,10,18,15,22,12.60
2013,10,18,15,23,12.60
2013,10,18,15,24,12.50
2013,10,18,15,25,12.50
2013,10,18,15,26,12.40
2013,10,18,15,27,12.30
2013,10,18,15,28,12.30
2013,10,18,15,29,12.20
2013,10,18,15,30,12.20
2013,10,18,15,31,12.20
2013,10,18,15,32,12.10
2013,10,18,15,33,12.10
2013,10,18,15,34,12.10
2013,10,18,15,35,12.10
2013,10,18,15,36,12.10
2013,10,18,15,37,12.00
2013,10,18,15,38,12.00
2013,10,18,15,39,11.90
2013,10,18,15,40,11.90
2013,10,18,15,41,11.90
2013,10,18,15,42,11.90
2013,10,18,15,43,11.90
2013,10,18,15,44,11.80
2013,10,18,15,45,11.80
2013,10,18,15,46,11.80
2013,10,18,15,47,11.80
2013,10,18,15,48,11.80
2013,10,18,15,49,11.80
2013,10,18,15,50,11.70
2013,10,18,15,51,11.70
2013,10,18,15,52,11.70
2013,10,18,15,53,11.70
2013,10,18,15,54,11.70
2013,10,18,15,55,11.60
2013,10,18,15,56,11.50
2013,10,18,15,57,11.50
2013,10,18,15,58,11.40
2013,10,18,15,59,11.30
2013,10,18,16,00,11.20
2013,10,18,16,01,11.20
2013,10,18,16,02,11.10
2013,10,18,16,03,11.00
2013,10,18,16,04,11.00
2013,10,18,16,05,10.90
2013,10,18,16,06,10.90
2013,10,18,16,07,10.90
2013,10,18,16,08,10.80
2013,10,18,16,09,10.80
2013,10,18,16,10,10.80
2013,10,18,16,11,10.80
2013,10,18,16,12,10.80
2013,10,18,16,13,10.80
2013,10,18,16,14,10.80
2013,10,18,16,15,10.80
2013,10,18,16,16,10.80
2013,10,18,16,17,10.70
2013,10,18,16,18,10.70
2013,10,18,16,19,10.70
2013,10,18,16,20,10.60
2013,10,18,16,21,10.60
2013,10,18,16,22,10.60
2013,10,18,16,23,10.60
2013,10,18,16,24,10.50
2013,10,18,16,25,10.50
2013,10,18,16,26,10.50
2013,10,18,16,27,10.40
2013,10,18,16,28,10.40
2013,10,18,16,29,10.40
2013,10,18,16,30,10.40
2013,10,18,16,31,10.40
2013,10,18,16,32,10.40
2013,10,18,16,33,10.40
2013,10,18,16,34,10.40
2013,10,18,16,35,10.40
2013,10,18,16,36,10.40
2013,10,18,16,37,10.40
2013,10,18,16,38,10.50
2013,10,18,16,39,10.50
2013,10,18,16,40,10.50
2013,10,18,16,41,10.50
2013,10,18,16,42,10.60
2013,10,18,16,43,10.60
2013,10,18,16,44,10.60
2013,10,18,16,45,10.60
2013,10,18,16,46,10.60
2013,10,18,16,47,10.60
2013,10,18,16,48,10.60
2013,10,18,16,49,10.60
2013,10,18,16,50,10.60
2013,10,18,16,51,10.50
2013,10,18,16,52,10.60
2013,10,18,16,53,10.50
2013,10,18,16,54,10.50
2013,10,18,16,55,10.50
2013,10,18,16,56,10.50
2013,10,18,16,57,10.50
2013,10,18,16,58,10.50
2013,10,18,16,59,10.50
2013,10,18,17,00,10.40
2013,10,18,17,01,10.40
2013,10,18,17,02,10.40
2013,10,18,17,03,10.40
2013,10,18,17,04,10.40
2013,10,18,17,05,10.40
2013,10,18,17,06,10.30
2013,10,18,17,07,10.30
2013,10,18,17,08,10.30
2013,10,18,17,09,10.30
2013,10,18,17,10,10.30
2013,10,18,17,11,10.30
2013,10,18,17,12,10.30
2013,10,18,17,13,10.30
2013,10,18,17,14,10.30
2013,10,18,17,15,10.30
2013,10,18,17,16,10.30
2013,10,18,17,17,10.30
2013,10,18,17,18,10.30
2013,10,18,17,19,10.30
2013,10,18,17,20,10.20
2013,10,18,17,21,10.20
2013,10,18,17,22,10.20
2013,10,18,17,23,10.20
2013,10,18,17,24,10.10
2013,10,18,17,25,10.10
2013,10,18,17,26,10.10
2013,10,18,17,27,10.10
2013,10,18,17,28,10.00
2013,10,18,17,29,10.00
2013,10,18,17,30,10.00
2013,10,18,17,31,9.90
2013,10,18,17,32,9.90
2013,10,18,17,33,9.90
2013,10,18,17,34,9.90
2013,10,18,17,35,9.90
2013,10,18,17,36,9.90
2013,10,18,17,37,9.90
2013,10,18,17,38,9.90
2013,10,18,17,39,9.90
2013,10,18,17,40,9.80
2013,10,18,17,41,9.80
2013,10,18,17,42,9.80
2013,10,18,17,43,9.80
2013,10,18,17,44,9.80
2013,10,18,17,45,9.80
2013,10,18,17,46,9.80
2013,10,18,17,47,9.80
2013,10,18,17,48,9.80
2013,10,18,17,49,9.80
2013,10,18,17,50,9.80
2013,10,18,17,51,9.80
2013,10,18,17,52,9.70
2013,10,18,17,53,9.70